Wind_Speed
17 18 18 17 17 17 17 18 18 17 17 17 17 17 17 16 16 15 15 14 14 14 14 14 13 13 13 12 12 13 13 13 12 12 13 14 13 14 13 13 15 15 13 12 13 12 12 13 14 14 13 13 13 13 13 13 13 13 13 13 13 14 15 15 17 17 15 12 13 12 10 10 10 10 10 9 10 11 11 9 10 11 10 11 15
18 18 17 17 16 16 16 16 17 17 17 17 18 18 17 17 16 16 15 15 14 14 14 14 14 14 14 13 13 13 13 13 13 12 13 14 15 14 13 14 16 16 15 14 14 13 12 14 15 15 14 14 14 14 14 14 14 14 15 16 16 15 16 17 17 18 16 14 13 13 11 11 12 11 11 11 11 11 12 11 10 9 9 9 13
17 17 15 14 15 15 15 16 16 17 18 18 18 18 18 17 17 17 16 16 15 15 14 14 14 14 14 14 13 14 14 14 14 14 14 15 15 14 14 14 15 15 14 14 14 13 13 14 15 14 14 14 15 14 14 15 15 15 15 16 15 15 15 15 16 18 17 15 14 14 12 12 13 12 12 12 13 13 13 11 10 10 10 9 10
14 17 15 13 13 14 14 15 16 17 17 18 18 18 18 18 18 17 17 16 16 15 15 15 14 14 14 14 15 15 15 15 15 15 15 16 15 16 16 14 14 14 14 14 14 14 15 14 14 14 14 15 16 16 15 15 15 15 15 15 15 15 15 14 16 18 18 17 16 14 13 14 14 14 14 14 14 14 14 14 12 10 10 10 9
10 11 13 14 14 14 14 15 16 17 17 17 18 18 18 18 19 18 18 17 17 16 16 15 15 15 15 15 16 16 16 16 16 16 16 15 15 16 16 15 15 16 16 15 15 16 16 15 14 15 15 15 16 16 15 15 15 15 15 15 15 15 15 15 17 18 19 19 18 17 16 16 16 16 15 15 15 15 14 14 13 12 12 11 9
11 9 12 15 16 16 16 16 15 15 17 18 17 18 18 18 19 19 18 18 18 17 17 16 16 16 16 16 17 17 17 17 17 17 17 16 16 16 16 16 15 15 15 14 14 16 16 15 16 17 16 16 16 16 16 15 15 15 15 16 16 16 17 18 18 18 19 20 19 19 18 17 18 17 17 16 15 15 15 14 14 14 13 12 9
13 13 14 16 17 15 15 16 16 15 18 19 17 17 17 18 19 19 19 18 18 18 18 17 17 17 17 17 18 18 18 17 17 18 18 17 16 16 17 18 16 15 16 15 14 16 16 16 17 18 17 17 17 17 16 16 17 16 15 16 16 17 18 18 18 17 19 20 18 17 17 19 21 20 18 16 14 15 17 17 18 16 13 13 11
12 14 16 18 17 15 15 16 17 18 20 20 17 17 18 17 17 17 18 18 19 18 18 18 18 17 17 17 18 20 20 19 18 17 16 16 16 17 17 17 16 18 19 18 18 18 17 16 18 18 18 19 19 18 16 15 17 17 16 16 17 16 16 17 18 18 19 19 18 17 18 22 24 22 18 17 16 17 19 19 19 18 15 14 12
14 15 16 15 16 17 19 18 18 19 19 19 19 19 20 19 17 15 16 17 18 18 18 17 17 18 18 17 17 19 20 21 20 18 18 18 17 17 16 17 20 22 20 19 19 17 16 18 19 17 17 18 18 18 17 16 17 18 19 19 18 17 17 18 20 20 19 19 19 19 21 21 22 21 20 20 19 18 19 19 19 19 17 14 11
14 15 15 15 15 18 21 20 18 17 17 18 19 19 20 20 19 19 18 16 16 15 15 16 17 16 17 16 17 20 20 21 21 19 18 20 18 17 18 19 22 21 18 18 18 18 18 19 19 19 21 21 20 20 20 20 21 22 22 22 21 21 21 22 22 22 22 23 21 20 21 20 19 20 21 22 23 22 21 21 22 21 19 15 12
14 14 15 16 16 18 20 20 19 18 17 18 19 20 20 20 20 21 20 17 17 15 14 15 16 15 15 15 15 17 18 17 18 18 18 18 18 19 20 19 18 19 20 20 20 19 19 18 18 20 23 24 21 20 20 20 20 21 21 21 21 22 24 26 26 25 26 28 26 24 24 23 21 20 18 19 22 23 21 21 22 21 19 17 14
14 15 16 17 16 17 18 19 20 20 19 19 22 22 20 18 18 19 20 19 19 20 18 17 16 14 14 13 11 11 11 11 13 16 17 17 18 20 21 19 17 17 18 17 17 18 18 17 16 18 20 20 20 19 19 19 19 20 21 21 20 21 23 25 27 29 29 30 30 29 28 27 26 25 21 20 22 23 21 20 20 20 20 19 15
13 14 15 16 16 16 16 17 19 20 19 20 22 20 18 18 17 17 20 22 22 22 21 19 18 16 15 15 14 13 12 11 12 14 15 16 18 19 20 19 19 19 18 17 17 18 18 18 17 17 16 16 17 18 20 20 19 20 22 23 22 22 23 24 26 28 29 30 31 31 30 29 30 30 27 26 26 26 25 24 22 21 22 19 15
11 12 12 14 16 17 17 16 17 17 18 20 21 19 17 17 17 16 17 21 22 22 21 20 20 18 17 18 18 16 13 12 13 14 15 16 18 19 20 21 22 21 20 20 19 17 17 18 19 17 16 17 19 20 20 19 18 19 21 22 22 23 24 25 26 26 26 28 30 30 29 28 29 30 28 29 30 28 27 27 24 22 21 20 18
9 11 12 13 13 14 14 14 13 13 16 18 18 18 17 16 17 17 18 20 22 23 22 21 20 19 17 17 18 18 16 16 15 15 16 18 18 19 19 20 21 18 17 18 19 17 16 18 19 16 14 18 20 19 18 19 19 21 22 22 22 24 25 26 27 26 26 27 28 28 27 25 25 26 25 26 28 28 28 27 24 22 21 20 19
8 9 10 9 9 9 10 10 10 10 12 15 16 17 16 16 16 16 16 17 19 20 20 19 18 17 16 16 18 19 18 17 17 15 15 16 16 17 17 17 17 17 17 18 19 18 17 18 15 10 10 15 18 17 18 19 20 21 22 23 24 24 25 27 27 26 26 27 27 28 28 27 27 27 27 26 26 27 28 26 23 21 19 18 19
8 8 7 7 6 5 5 6 7 7 9 12 13 14 13 15 16 15 14 14 16 16 16 15 14 14 15 16 17 17 16 15 15 15 16 17 16 16 16 15 14 15 16 17 18 18 18 19 18 14 13 16 18 19 20 21 21 23 23 24 25 25 26 26 24 24 25 26 26 27 28 28 28 29 30 28 27 29 30 28 26 24 21 19 20
3 2 2 1 1 1 2 4 5 6 7 9 10 10 10 11 13 13 12 11 10 11 12 12 11 12 13 14 14 13 13 13 13 14 15 17 16 15 14 13 11 10 11 12 13 14 13 15 17 16 16 17 19 20 21 22 22 23 22 22 23 24 26 25 23 24 25 26 27 28 28 29 29 30 31 30 29 31 32 31 28 25 22 20 18
5 5 4 4 3 2 2 0 1 2 4 6 6 6 7 7 7 8 9 7 6 7 8 10 11 10 9 9 9 9 10 9 9 10 12 12 13 13 11 11 11 10 10 9 9 9 9 10 12 14 14 15 17 17 18 19 19 20 20 19 19 20 22 24 24 26 26 27 28 28 28 28 28 29 30 31 32 33 33 31 28 25 23 21 16
9 8 7 7 6 5 5 5 4 3 2 4 5 5 6 6 5 5 5 6 6 6 6 8 8 7 5 5 5 7 7 6 6 8 8 9 11 12 10 9 10 11 11 11 9 8 8 8 10 11 11 12 13 13 14 15 15 15 16 15 16 17 19 21 23 24 25 25 26 27 27 26 25 26 28 30 33 33 31 28 25 22 22 21 18
13 13 13 12 11 11 11 11 10 9 7 6 6 7 6 6 6 6 6 7 7 7 7 8 7 6 5 5 6 7 7 5 4 5 6 8 9 9 8 6 7 8 8 8 7 7 7 7 9 11 11 12 12 12 12 12 12 13 13 13 14 15 17 19 19 19 21 22 23 24 24 23 24 25 25 25 28 29 27 25 23 21 21 21 20
13 14 14 14 14 14 14 13 12 11 10 9 9 8 7 6 6 6 6 6 5 5 6 5 5 5 6 7 7 5 4 2 2 2 4 6 5 5 5 5 5 5 5 4 5 6 8 9 10 12 14 14 14 14 13 13 13 13 13 13 13 14 15 17 18 18 18 18 19 20 20 20 23 22 18 16 20 23 23 22 20 19 18 19 19
13 15 15 14 13 13 13 12 11 11 11 11 10 10 8 7 7 6 5 5 5 4 4 4 3 4 4 4 4 3 3 3 2 1 1 2 2 2 3 4 4 5 5 5 6 7 9 10 12 13 15 16 16 15 15 15 14 14 14 14 14 15 14 13 13 13 13 13 13 15 16 15 16 15 13 11 11 13 14 15 14 15 16 15 13
15 15 15 14 14 12 12 11 11 10 11 11 11 11 11 10 10 9 8 8 8 8 8 7 6 6 5 5 6 5 5 4 4 3 2 1 1 2 3 3 5 5 5 6 7 8 10 11 12 13 14 14 14 14 14 14 14 14 14 13 13 13 12 11 11 10 9 8 9 9 9 7 7 7 7 7 6 7 8 8 9 11 11 10 8
15 14 14 14 13 12 12 11 10 10 9 9 9 10 9 9 9 9 8 7 7 7 7 7 7 7 5 4 4 3 3 3 3 4 4 4 4 5 5 5 6 7 8 9 10 10 10 10 10 11 11 11 14 15 15 13 13 14 15 14 14 13 10 9 10 9 7 7 7 6 5 5 4 4 4 4 4 6 6 5 4 4 4 4 3
14 13 13 13 12 11 11 11 11 10 9 8 8 8 7 7 7 7 6 5 5 5 5 5 5 5 5 5 5 4 4 4 4 4 5 6 5 5 5 6 8 9 10 11 10 9 8 7 8 10 11 13 15 16 16 15 14 16 18 16 13 13 10 8 8 8 7 7 7 5 5 6 5 3 2 1 2 2 2 1 1 1 1 2 5
11 11 11 11 11 11 11 10 10 9 9 8 8 8 7 6 6 6 5 4 4 4 3 3 4 5 6 6 7 7 7 7 7 7 7 7 7 6 7 7 8 8 9 9 8 7 6 6 8 9 11 12 12 12 14 13 13 14 15 12 10 13 11 7 6 7 7 7 6 5 4 4 4 3 1 0 0 1 1 2 4 4 2 4 7
9 9 9 9 9 9 10 10 9 8 8 8 8 8 7 6 5 6 6 5 5 4 4 4 5 5 5 5 5 5 6 8 8 8 8 8 8 8 8 8 8 8 7 7 6 5 6 7 7 7 9 9 9 9 10 10 9 9 9 9 10 13 11 7 5 5 5 6 5 4 3 2 1 1 1 1 1 3 3 4 5 5 3 3 3
7 7 7 8 8 8 8 8 8 8 7 7 6 6 6 5 5 6 6 5 5 6 6 5 5 5 4 5 5 5 6 7 8 8 8 8 8 9 9 8 8 7 7 6 7 7 9 10 10 9 10 9 7 6 7 6 6 6 5 5 8 11 10 8 7 7 6 5 4 4 3 2 2 1 0 1 2 3 4 5 6 6 5 3 1
5 5 5 5 6 7 7 7 7 7 7 6 6 6 6 6 6 6 6 6 6 6 6 5 5 5 5 5 5 6 6 7 7 8 8 8 8 8 8 8 7 7 7 8 11 11 10 10 11 11 12 12 11 10 10 8 7 7 6 4 5 7 7 7 6 6 7 6 4 4 4 3 2 1 1 2 4 6 8 10 10 11 9 6 5
4 5 5 4 4 5 5 5 6 6 4 4 5 6 6 6 6 6 6 6 6 5 4 4 5 5 5 5 6 6 7 7 7 7 8 8 8 8 7 7 7 7 7 8 10 10 9 10 10 11 11 12 11 11 12 11 10 10 10 8 6 5 5 5 5 5 5 4 3 3 3 3 2 1 1 3 6 7 9 10 11 11 10 7 6
3 4 4 4 4 4 3 3 4 4 4 4 4 5 5 5 5 5 5 4 4 4 4 4 4 4 4 5 5 6 6 6 7 7 8 9 9 8 8 8 8 8 7 8 9 9 9 9 10 10 10 11 10 10 10 10 10 10 9 8 6 6 6 7 7 7 6 5 3 2 1 1 1 3 4 6 7 8 9 10 10 9 7 6 7
3 2 2 2 3 3 3 3 2 3 3 3 2 2 3 2 3 3 3 3 3 3 2 2 2 2 3 3 4 5 5 5 6 7 8 9 9 8 8 8 9 9 8 9 10 10 9 9 10 10 9 9 9 9 9 9 8 8 7 7 6 6 5 5 5 5 5 4 4 3 3 4 4 5 6 7 8 9 10 10 10 9 7 8 9
2 2 1 1 1 2 2 2 1 1 1 1 2 2 1 1 1 3 4 4 4 3 2 1 1 1 1 2 3 3 4 5 5 6 8 8 9 9 9 10 10 10 9 9 9 8 8 8 9 9 9 8 8 8 8 7 7 7 7 7 6 6 7 6 6 5 4 4 5 5 5 5 5 5 6 7 8 9 9 9 9 9 8 8 9
4 4 4 3 2 1 2 1 1 1 1 1 1 1 2 2 2 3 3 3 4 4 3 3 2 1 1 0 1 2 2 3 4 5 6 7 8 9 10 10 9 8 8 8 8 7 7 7 7 7 8 8 8 8 8 8 8 7 7 7 7 7 7 8 10 11 11 11 11 11 10 10 10 10 10 10 9 8 8 7 8 8 7 9 11
3 5 6 4 1 2 3 3 2 2 2 2 2 3 4 4 4 5 4 4 5 5 5 5 4 3 3 2 1 1 2 4 5 5 5 6 6 7 8 6 5 5 6 7 7 7 6 6 6 6 6 6 7 7 7 8 8 7 8 8 8 9 11 12 13 15 14 12 12 13 14 15 16 16 16 15 15 15 14 13 14 15 15 17 19
5 5 5 4 3 3 3 3 4 5 4 2 2 4 4 5 6 6 6 6 6 6 7 8 8 6 6 4 3 3 4 6 7 7 7 7 7 7 7 5 5 5 5 5 6 6 7 7 6 6 5 6 7 7 8 9 9 9 11 12 10 11 15 16 14 14 13 11 10 12 13 15 17 18 18 19 19 19 20 21 22 23 24 24 25
5 6 8 9 8 6 4 4 7 8 6 4 4 5 5 6 7 7 7 8 7 6 8 10 9 8 7 6 4 3 4 6 6 7 8 8 7 6 5 5 6 6 5 6 6 6 6 7 7 7 7 8 8 7 7 8 9 9 11 11 10 11 14 13 12 12 12 10 9 11 12 13 14 15 16 17 17 17 18 21 23 24 24 25 25
5 7 9 10 9 8 6 6 7 7 6 6 7 7 7 7 8 8 8 8 9 8 9 10 10 9 9 9 7 4 3 5 6 6 5 5 4 2 3 4 4 4 5 7 7 7 7 7 8 10 10 10 9 10 11 12 13 14 14 12 10 11 12 11 11 12 12 11 11 11 11 12 13 12 12 13 13 13 14 15 16 17 18 19 20
4 6 9 9 6 5 6 7 7 8 8 7 7 8 8 8 8 9 9 9 10 10 11 11 11 10 11 10 8 6 4 5 8 9 7 5 4 2 2 3 3 4 5 6 6 6 7 8 9 9 10 9 9 10 10 11 12 14 15 13 12 13 12 12 12 13 13 13 12 12 11 12 12 12 12 12 12 13 13 12 12 12 13 13 15
3 4 6 8 7 5 5 6 7 7 7 8 8 8 8 8 8 9 10 10 11 11 11 11 11 13 13 12 11 10 8 8 9 10 9 7 5 3 2 3 4 4 4 5 5 5 6 8 9 9 9 9 11 10 8 7 8 10 11 12 12 13 12 11 11 11 12 12 12 12 12 12 12 13 14 13 13 14 13 12 12 12 12 12 12
3 3 4 5 6 5 5 5 6 7 7 8 8 8 8 8 8 9 9 10 10 11 12 11 11 13 14 13 11 11 10 9 8 9 8 7 5 4 3 4 5 4 3 3 4 5 6 7 8 9 9 9 10 11 10 10 11 11 11 11 12 12 12 11 10 10 11 11 11 11 12 13 13 13 14 14 14 14 13 12 12 12 12 12 12
3 3 4 3 4 5 5 5 6 6 6 7 8 7 7 7 8 9 10 10 10 11 11 12 11 12 13 13 10 9 9 8 7 7 6 6 6 5 4 4 4 3 3 4 4 5 5 6 7 9 10 9 9 10 10 11 12 12 12 12 12 11 11 10 10 10 9 10 10 11 12 12 13 13 13 13 13 13 13 13 12 12 12 13 12
2 3 4 4 4 4 4 5 5 5 5 7 8 8 7 8 8 8 9 10 10 10 10 10 9 9 9 9 7 7 6 6 6 5 5 6 6 6 5 5 5 4 3 5 6 5 5 6 7 8 9 9 10 10 10 11 11 12 12 11 11 10 10 9 8 8 9 10 10 11 11 12 13 13 13 13 13 12 13 12 12 12 12 12 12
4 4 4 4 4 4 5 5 5 5 5 7 7 7 7 7 7 7 8 8 8 9 9 8 7 6 5 5 5 4 4 4 4 4 4 5 6 6 5 5 5 4 3 5 6 5 5 7 8 8 9 9 10 10 10 11 12 11 11 10 9 9 8 7 6 7 9 10 11 11 11 12 13 13 13 13 12 12 12 12 12 12 12 12 12
5 5 4 5 5 5 5 5 4 4 6 7 6 6 7 8 7 8 8 7 7 8 8 7 7 6 5 5 4 3 4 4 4 4 5 5 5 5 5 5 5 4 4 5 6 6 6 7 8 8 9 10 10 11 11 11 11 10 10 9 8 8 7 7 7 8 9 10 11 12 13 14 13 13 12 12 12 11 11 11 11 11 11 12 12
3 3 5 5 4 5 5 5 5 5 6 6 6 6 7 7 7 8 8 8 7 7 6 6 6 5 5 5 4 3 4 4 3 4 5 5 4 4 5 6 5 5 5 6 6 7 8 8 7 8 9 10 10 10 10 10 10 9 9 10 11 12 13 14 14 12 12 13 14 14 14 14 13 13 12 12 11 11 11 11 11 11 11 11 12
3 4 5 4 4 4 5 5 5 5 5 6 6 6 6 7 7 7 7 6 6 6 5 5 5 4 4 4 4 4 4 4 4 4 4 5 4 5 6 6 6 6 8 8 8 9 9 8 7 8 9 9 9 10 10 10 9 9 12 15 16 16 17 18 18 18 20 21 19 15 13 13 13 13 13 12 12 11 11 11 11 11 10 10 10
4 4 5 4 4 5 5 5 5 6 5 6 6 6 6 6 6 6 6 7 7 7 6 5 5 5 5 4 4 4 4 4 4 4 4 3 4 4 5 4 4 6 9 9 9 10 10 9 8 8 9 9 10 11 11 10 8 10 15 18 17 16 18 19 20 22 24 23 18 13 12 12 13 12 12 12 12 12 12 12 12 12 11 9 9
4 4 4 4 5 5 5 5 5 5 5 6 6 6 6 6 6 6 7 6 6 6 7 7 6 6 6 6 6 6 5 5 5 5 5 4 4 4 5 5 5 7 9 9 9 9 9 9 9 9 9 10 11 10 10 10 10 13 16 17 17 18 20 21 22 23 22 19 14 11 10 11 11 11 12 12 12 11 11 11 11 11 10 10 10
4 4 4 5 5 5 4 5 5 5 5 5 6 6 6 6 6 6 6 6 6 6 6 6 6 6 6 6 6 6 6 5 5 6 6 7 6 6 7 7 8 9 10 9 8 9 9 9 9 9 10 10 10 9 8 10 13 15 16 17 19 20 21 20 18 18 19 16 12 9 9 9 10 10 11 12 12 11 11 11 11 10 10 10 10
Wind_Direction
202 204 205 207 209 210 214 217 217 218 219 221 222 223 223 223 223 223 222 221 221 224 225 224 223 224 226 227 224 227 230 230 231 235 246 254 248 238 231 233 248 256 255 253 250 247 250 253 253 255 254 254 256 256 255 254 252 252 255 253 252 259 263 265 270 275 275 273 273 272 275 276 271 271 272 270 274 282 290 295 293 299 306 297 298
203 209 209 207 210 213 214 217 219 221 222 224 226 227 227 227 226 225 225 225 222 223 227 227 227 226 227 229 229 229 230 231 232 230 238 251 255 248 238 235 246 253 253 254 254 249 249 252 256 258 258 257 257 255 256 255 251 251 253 251 252 257 261 262 263 267 274 277 274 274 273 273 275 273 271 271 273 275 280 284 288 293 294 295 301
201 205 208 207 212 216 217 218 220 222 223 226 228 230 230 229 229 229 229 229 227 226 227 229 230 229 229 230 230 229 230 231 233 232 232 239 248 249 245 245 253 256 254 257 260 255 250 252 255 257 256 256 256 254 254 255 254 253 254 258 262 261 261 263 260 260 269 274 273 276 276 274 275 272 270 274 276 277 279 280 283 286 286 290 296
210 200 200 208 216 220 223 224 224 225 225 227 228 229 231 231 231 231 232 231 231 230 230 231 232 232 232 232 232 232 232 233 234 234 235 236 240 246 247 244 245 248 249 254 256 252 249 250 254 257 256 255 254 252 251 254 256 255 255 259 263 262 260 261 259 260 268 273 272 274 274 274 275 274 274 275 273 274 276 277 279 282 282 285 291
229 204 198 208 216 221 225 227 228 229 229 230 231 230 230 231 231 230 232 232 232 231 232 232 232 232 233 234 235 235 233 234 234 233 237 241 241 245 249 248 245 245 247 248 250 251 250 249 253 255 255 256 257 258 256 254 254 256 256 255 256 259 258 255 255 259 265 271 274 274 275 278 279 277 277 275 272 272 271 272 276 278 277 282 289
222 213 208 217 224 228 230 229 228 233 233 230 231 233 232 232 232 230 230 231 231 231 231 231 232 232 232 233 235 236 235 235 235 234 234 237 238 243 250 253 251 249 252 252 256 262 260 257 258 256 252 253 257 260 260 258 255 254 254 255 255 256 256 255 255 259 265 270 275 279 281 280 278 276 276 273 272 272 271 273 278 277 273 276 284
224 224 225 232 239 241 241 235 231 237 238 232 231 235 234 236 237 234 233 232 230 230 231 231 232 232 233 234 234 233 234 233 235 239 239 236 237 241 245 248 249 249 249 246 246 254 255 255 260 260 257 257 256 256 259 262 262 259 257 257 258 258 260 261 259 259 264 269 273 278 280 279 279 280 279 277 274 271 271 276 278 272 263 269 283
233 231 229 234 240 244 246 242 237 237 238 235 237 238 238 247 249 239 236 237 235 233 232 232 234 235 235 237 238 238 238 236 233 236 242 243 243 245 245 247 247 245 246 244 242 247 251 253 257 258 259 260 257 256 260 260 262 265 264 263 264 267 270 271 270 267 265 267 269 271 277 282 285 285 282 279 275 271 273 275 274 270 268 275 284
231 234 231 230 232 236 240 240 239 240 238 235 235 234 238 252 260 248 239 240 239 239 238 236 236 237 238 238 242 247 245 242 238 236 242 250 252 251 252 254 249 246 248 249 247 250 256 258 262 266 268 266 264 265 264 262 264 268 270 272 274 276 275 274 277 279 276 276 279 281 283 285 286 286 284 280 278 283 285 279 274 277 279 278 278
229 233 234 231 227 234 241 241 241 246 244 238 238 241 243 248 253 252 247 242 241 241 243 245 243 243 245 243 246 248 245 244 246 241 241 250 252 249 249 252 251 250 253 254 254 256 259 262 266 271 270 267 264 263 262 262 265 268 271 275 277 277 276 273 275 279 279 280 284 288 287 285 286 289 289 284 286 292 292 285 282 281 277 274 278
230 234 238 237 230 232 241 243 242 244 244 243 244 246 246 243 243 244 242 241 242 239 239 244 243 242 247 249 249 248 244 245 250 245 241 248 252 250 252 255 258 258 258 258 260 262 264 268 272 272 272 271 269 266 264 262 264 267 269 271 273 274 274 273 274 275 276 278 280 281 282 285 287 289 291 292 293 293 290 287 285 280 275 277 282
240 240 242 245 240 236 240 243 242 241 240 239 240 241 241 239 239 237 234 232 236 238 240 244 241 236 242 253 260 258 252 251 254 254 253 255 257 254 254 258 262 265 266 263 262 265 268 270 268 268 272 276 274 269 267 266 268 272 274 274 276 277 275 274 275 275 275 277 278 277 278 282 284 285 287 290 290 290 288 284 279 277 278 280 282
251 248 248 251 249 245 245 246 246 243 234 228 230 234 233 231 232 233 231 228 228 232 237 242 243 239 243 253 261 265 266 264 260 260 259 258 259 257 257 260 262 261 265 265 262 264 268 268 266 264 264 270 273 268 267 272 275 276 277 278 280 280 278 277 277 277 276 276 276 277 279 282 283 284 284 283 282 283 283 280 277 279 282 282 283
251 253 253 253 251 248 245 247 249 244 234 229 232 237 237 233 231 227 224 223 224 226 228 232 238 241 245 253 258 261 269 270 263 260 260 260 263 264 265 268 268 264 266 274 276 269 264 266 269 268 261 262 268 269 270 275 279 278 280 282 282 281 279 279 279 278 277 274 274 276 278 279 278 278 280 281 280 278 279 279 280 281 283 283 285
242 247 249 252 254 251 247 248 249 242 237 236 238 241 242 236 229 223 220 219 220 224 228 230 236 242 247 253 257 258 263 267 266 263 260 259 262 266 268 270 272 269 264 274 282 279 275 275 271 268 269 267 268 271 272 273 275 278 281 282 281 279 277 278 279 278 276 275 275 274 275 275 274 275 277 279 278 277 276 275 274 277 282 284 287
228 237 243 248 249 246 243 246 249 247 246 246 246 248 247 240 231 226 223 222 221 225 230 229 231 237 241 243 249 254 256 259 263 263 261 258 256 260 264 266 269 269 264 267 276 279 284 287 281 278 285 278 274 279 281 278 278 279 279 279 279 278 277 278 279 278 277 276 275 273 274 274 275 275 275 275 276 276 272 266 264 269 276 278 280
220 223 228 233 236 239 242 249 250 250 248 244 240 238 237 236 233 226 220 219 221 225 229 228 228 231 232 234 244 253 255 257 262 263 261 260 257 256 262 267 271 274 273 273 276 277 279 285 292 298 295 285 283 284 284 282 281 279 279 279 278 278 279 280 280 280 279 277 276 276 276 275 274 274 274 274 273 269 264 261 261 265 269 270 270
198 186 191 205 214 189 205 231 241 238 228 221 220 220 219 226 231 223 215 214 217 223 232 236 234 229 229 234 242 250 255 260 265 266 264 264 264 262 265 272 277 281 282 280 284 289 287 285 291 295 290 287 289 288 286 286 285 284 284 281 278 278 279 280 279 278 276 276 278 279 277 276 275 274 273 272 269 265 261 259 258 260 265 265 261
98 87 84 87 80 73 88 126 243 230 212 194 187 188 189 193 203 205 201 196 196 207 221 229 231 227 226 234 240 246 254 261 266 271 274 276 277 274 271 274 276 278 281 284 291 300 296 285 286 291 292 295 297 296 296 296 293 293 292 288 283 281 278 277 276 273 271 272 275 277 277 278 278 277 274 269 264 261 259 256 254 256 260 257 246
85 81 77 80 76 70 69 71 81 95 139 160 146 133 140 157 169 178 182 175 170 175 184 199 210 210 206 218 232 243 257 272 278 281 288 294 297 295 289 284 283 282 284 287 287 286 286 288 295 303 310 310 309 309 310 308 305 302 299 294 289 285 282 280 278 277 276 275 273 274 276 277 276 275 274 269 261 258 257 255 251 249 252 247 234
88 84 80 80 81 84 84 79 77 81 91 113 122 112 119 143 152 152 160 163 165 172 176 182 190 191 193 206 223 238 255 269 276 283 294 301 306 306 301 296 292 291 295 296 288 284 294 308 316 322 325 324 324 325 322 318 317 313 307 302 299 296 296 294 291 289 287 283 280 276 273 272 273 273 271 265 260 258 256 253 247 244 248 245 229
88 85 82 82 84 88 90 88 84 84 90 103 115 117 119 128 129 134 149 157 164 175 177 181 191 197 198 200 205 215 224 229 233 258 283 293 298 301 304 303 296 291 296 302 302 307 316 323 328 331 333 330 329 329 327 324 323 319 316 316 313 308 304 302 301 300 296 293 290 282 273 271 271 266 255 244 247 249 245 239 238 240 243 240 226
84 83 80 78 79 79 80 84 87 90 94 104 116 120 123 125 126 132 142 150 156 159 154 157 170 177 174 161 141 119 102 90 69 42 289 284 289 290 297 302 304 302 304 309 315 321 323 326 330 334 333 329 326 324 323 320 319 318 320 324 322 316 313 312 314 315 312 309 305 296 288 277 263 248 238 236 237 234 227 224 228 229 223 221 221
81 83 84 83 83 80 77 79 82 81 84 94 105 110 112 114 115 115 117 120 124 125 123 120 116 111 102 92 82 72 64 55 38 27 24 13 344 323 315 310 306 307 311 315 322 328 331 334 339 340 338 335 335 336 330 324 327 333 333 333 333 333 334 339 342 340 334 325 318 313 309 296 265 252 267 277 257 231 227 228 229 225 216 212 218
80 79 80 79 81 82 82 85 86 82 79 81 82 84 88 87 82 84 92 98 98 100 104 101 95 89 80 69 66 61 41 17 357 341 329 322 315 313 317 320 322 328 336 339 344 348 347 349 355 358 2 9 10 9 4 358 0 3 0 358 354 346 339 342 348 348 337 328 331 337 338 335 329 323 315 296 261 242 242 240 225 215 206 201 212
79 77 76 76 79 82 82 83 84 83 82 81 80 82 85 79 69 70 75 68 62 73 83 76 64 57 43 28 21 25 27 17 5 353 341 339 339 332 328 333 339 347 351 354 359 360 354 360 13 23 33 33 24 21 24 25 22 17 15 14 3 345 338 345 355 352 338 331 342 357 359 1 8 7 343 291 255 234 236 246 74 85 105 52 33
73 74 73 73 75 79 81 83 85 87 89 89 88 87 87 91 99 106 109 102 87 85 92 89 73 56 44 39 32 27 29 32 30 24 17 13 11 7 3 3 3 3 3 8 12 8 1 10 24 36 41 33 23 24 27 25 23 19 17 15 355 336 340 354 359 358 357 355 8 34 43 38 42 47 48 344 17 58 69 61 66 75 77 50 41
74 71 69 68 66 67 71 74 78 90 102 108 110 105 99 106 124 129 134 139 129 104 85 84 90 89 79 72 63 45 34 36 38 34 31 30 27 22 21 22 21 19 19 21 19 16 22 26 28 41 44 35 32 37 33 32 38 29 19 22 5 346 345 355 354 356 7 3 9 40 64 62 50 64 147 162 90 71 73 63 58 63 65 63 77
69 69 69 68 66 65 69 71 69 69 77 90 102 104 100 101 104 103 108 117 116 108 102 90 89 103 106 94 83 67 50 45 43 39 36 36 33 31 30 28 26 25 29 34 34 37 42 39 34 37 39 35 36 35 24 28 40 19 2 27 22 3 2 15 15 10 11 9 15 30 24 11 16 15 144 109 82 69 50 26 19 23 20 4 273
57 58 63 70 74 71 72 80 83 79 75 74 77 82 85 85 86 90 96 97 95 102 111 103 92 96 100 91 79 67 57 51 46 42 41 39 37 36 35 32 31 32 37 45 45 43 45 44 41 41 40 39 43 37 23 19 27 21 7 4 4 356 359 11 18 21 19 15 17 21 19 28 56 75 78 54 32 14 5 358 354 356 358 349 330
44 35 35 46 78 84 78 88 104 111 105 81 69 70 74 77 79 81 82 83 84 86 88 87 86 86 84 80 74 64 57 54 50 48 47 44 44 44 41 41 46 46 48 58 58 50 44 44 44 43 41 41 42 39 32 29 34 38 34 29 31 42 41 35 41 48 48 52 61 62 74 103 120 109 26 5 356 350 350 347 347 352 356 351 334
58 40 22 17 44 65 60 61 86 102 97 81 72 67 61 58 62 68 70 68 68 70 70 71 73 75 72 71 70 66 62 58 53 50 48 44 43 43 40 42 49 49 49 60 63 56 50 46 42 40 39 37 34 35 35 32 31 33 30 26 36 56 61 52 44 37 35 45 59 66 87 94 0 341 336 339 338 334 333 332 334 341 339 320 310
68 63 37 21 34 52 51 42 52 75 89 94 90 77 61 44 28 30 45 55 50 49 59 58 53 62 67 65 68 67 61 56 50 46 43 39 35 34 33 34 38 40 45 55 56 49 46 45 41 39 37 34 30 29 28 25 25 24 18 11 15 19 19 22 26 23 18 12 0 346 333 328 332 331 322 319 319 318 318 318 318 314 298 287 299
23 0 342 25 50 47 48 42 30 40 95 151 146 136 158 212 290 329 351 4 359 357 14 30 36 72 74 70 75 68 54 48 42 36 36 33 27 27 31 30 26 25 31 44 52 49 44 40 36 33 30 28 25 21 15 12 14 15 8 1 356 350 347 347 347 349 350 337 328 337 339 325 316 319 319 320 320 320 320 318 316 314 305 295 300
348 338 338 4 42 18 343 327 290 293 281 242 205 231 274 277 261 266 304 325 317 314 324 330 333 327 270 9 70 55 35 32 24 20 27 26 21 27 36 37 31 25 21 24 33 38 36 34 31 27 23 18 13 11 7 0 360 2 359 352 349 345 339 333 325 319 317 315 312 312 311 305 301 302 303 302 299 299 303 305 304 306 304 299 297
299 303 315 329 321 268 277 274 250 241 234 232 257 269 268 268 262 257 261 270 272 273 275 282 303 313 286 279 314 342 355 6 1 359 7 11 18 37 46 42 38 35 24 17 15 10 7 11 13 12 14 10 5 5 2 353 350 348 337 333 335 327 315 311 308 305 302 303 303 297 292 289 289 289 288 287 285 283 281 281 285 289 291 291 293
275 276 282 279 255 262 285 281 276 280 270 246 270 281 269 265 270 272 271 270 269 267 265 270 286 300 292 282 295 320 334 342 343 347 353 356 12 37 43 31 29 32 20 14 13 6 1 358 350 349 2 7 2 2 1 356 350 342 335 336 338 327 318 317 315 308 303 305 309 304 295 289 287 286 283 279 278 278 278 277 279 284 287 289 293
276 266 260 253 247 254 274 276 277 290 300 289 277 281 279 275 275 276 275 274 273 272 270 273 281 287 282 276 278 298 326 341 351 2 2 356 2 21 24 17 25 29 20 18 24 23 15 4 353 351 359 2 358 359 4 5 0 352 347 350 347 335 331 336 337 331 327 327 326 322 318 314 310 307 301 292 283 279 279 279 281 285 288 291 293
290 280 281 277 263 254 260 270 273 279 286 282 276 277 279 277 276 278 279 277 277 277 276 278 283 281 274 271 271 274 312 335 338 343 343 334 331 343 349 354 6 15 12 13 18 21 18 11 5 3 358 355 356 358 357 357 357 353 351 352 348 338 337 340 338 335 336 334 328 325 324 322 321 320 318 312 305 300 297 295 295 297 299 300 301
298 288 294 305 300 267 256 264 268 268 270 275 276 279 280 279 278 281 283 280 279 279 278 281 286 282 274 272 272 266 274 303 309 306 302 298 296 292 304 325 335 342 349 348 348 353 354 349 350 350 345 341 347 346 333 328 330 330 329 331 333 330 330 330 328 326 326 325 325 324 322 318 317 318 317 314 311 311 310 309 308 307 308 309 311
309 287 285 298 309 296 263 259 265 266 268 271 274 278 285 287 284 284 287 287 287 286 285 285 284 282 279 277 274 267 266 279 295 298 293 287 283 273 273 298 308 315 338 348 341 333 332 333 333 332 332 336 341 336 320 307 311 316 319 323 323 320 320 322 324 321 318 318 322 324 322 319 320 321 320 317 315 316 315 311 308 307 306 307 310
313 306 290 292 302 301 279 266 270 272 274 278 279 280 286 290 284 281 285 288 288 289 290 289 287 287 287 283 276 270 269 275 290 295 289 278 270 260 259 286 297 298 313 336 332 322 324 332 329 322 324 332 336 336 337 335 331 328 328 327 322 318 317 318 320 319 318 318 319 319 320 322 322 321 320 319 318 318 316 312 310 310 309 308 308
309 311 301 290 290 291 285 279 276 273 277 283 277 270 277 290 289 284 284 285 284 285 287 287 285 285 286 285 280 273 269 272 283 288 280 266 261 262 268 279 284 289 302 310 309 312 324 331 325 320 322 327 330 332 336 336 331 328 327 324 321 317 315 314 317 316 313 311 310 310 314 320 323 321 321 319 317 315 315 314 314 313 310 308 307
310 306 298 293 292 290 290 290 284 277 282 285 276 268 278 293 293 289 288 287 284 284 286 288 286 282 283 286 284 276 273 277 279 271 258 253 257 261 268 273 271 271 298 303 298 302 316 320 320 320 321 322 325 326 327 328 329 327 322 319 317 316 314 314 314 308 302 305 310 312 313 318 320 320 319 318 317 318 318 317 315 312 309 307 307
293 285 282 283 285 284 284 289 284 277 286 293 284 273 277 285 287 290 295 295 291 288 288 289 289 283 283 291 293 282 278 282 274 260 258 265 269 268 271 280 282 285 294 290 288 296 311 315 317 319 318 316 317 319 319 322 325 322 318 316 316 315 314 313 310 307 307 310 312 313 317 320 320 318 317 316 317 319 317 314 312 313 312 310 309
282 276 277 278 276 275 280 292 299 289 286 287 282 276 281 285 288 293 296 294 292 291 289 288 289 287 284 288 293 286 279 276 273 274 274 271 271 276 274 265 262 267 274 275 279 292 305 307 307 311 314 314 313 314 317 318 317 316 316 313 305 295 288 287 295 311 321 319 315 314 318 319 316 314 314 315 315 315 314 311 311 312 312 310 309
269 260 276 282 278 275 279 288 295 289 283 281 277 278 284 287 288 292 295 294 294 295 292 288 290 291 288 289 293 295 292 285 277 276 274 266 266 275 262 241 238 263 285 287 286 290 294 296 302 309 312 311 310 313 316 314 312 313 305 288 277 274 275 280 288 298 304 308 312 315 316 316 314 312 313 315 315 314 315 313 312 312 311 309 309
262 259 277 283 275 271 272 275 276 276 278 280 279 279 283 286 287 291 295 298 302 308 310 307 304 302 300 302 301 297 294 285 272 269 273 270 266 263 252 241 244 259 263 263 270 280 286 291 301 308 309 310 312 314 311 310 313 307 288 274 270 273 279 285 290 293 296 301 308 311 312 313 313 312 312 314 315 315 315 314 312 311 309 306 307
250 256 268 267 267 270 271 270 272 274 274 276 278 280 283 284 286 291 295 298 303 308 311 315 320 321 323 326 321 309 300 291 281 277 277 273 265 260 258 259 273 274 267 266 277 288 293 299 306 306 307 311 312 311 311 314 308 287 276 275 278 282 286 289 292 295 299 303 308 309 309 312 314 314 314 316 316 315 314 313 311 310 309 308 308
250 256 256 258 268 272 266 263 267 273 274 274 277 280 282 283 287 292 294 294 297 301 302 307 315 319 318 318 316 311 304 297 289 283 279 277 275 271 272 280 292 291 283 278 281 287 291 296 300 303 305 309 308 307 309 305 285 271 274 281 285 288 292 295 298 303 309 313 312 311 313 316 317 317 316 315 314 313 312 311 309 308 307 307 307
259 257 251 256 260 259 260 265 268 269 273 275 274 275 279 282 283 286 291 294 296 297 299 303 309 313 309 304 305 305 303 300 297 291 285 284 285 283 282 286 291 289 282 276 278 286 291 291 292 298 303 303 302 305 305 291 275 272 279 286 288 291 297 300 305 316 324 325 320 318 322 321 318 317 315 313 312 311 309 309 309 308 306 305 305
Height
1559 1561 1562 1564 1566 1567 1569 1569 1571 1572 1573 1574 1575 1576 1577 1577 1578 1579 1579 1580 1581 1581 1581 1581 1582 1583 1583 1583 1583 1584 1583 1584 1584 1584 1584 1584 1584 1584 1585 1585 1585 1585 1585 1585 1585 1586 1586 1586 1586 1586 1586 1586 1585 1585 1585 1585 1585 1584 1584 1584 1583 1583 1582 1582 1581 1580 1579 1579 1579 1578 1578 1578 1578 1577 1577 1577 1576 1575 1574 1574 1573 1572 1571 1570 1568
1557 1559 1561 1563 1565 1566 1568 1569 1570 1571 1572 1573 1574 1575 1576 1577 1577 1578 1578 1579 1580 1580 1581 1581 1581 1581 1582 1582 1583 1583 1582 1582 1583 1583 1583 1582 1582 1583 1583 1583 1584 1584 1584 1584 1584 1584 1584 1584 1584 1584 1584 1584 1584 1584 1584 1584 1583 1583 1583 1582 1582 1581 1581 1580 1580 1579 1578 1577 1577 1577 1576 1576 1576 1576 1576 1575 1575 1574 1573 1572 1571 1571 1570 1569 1567
1554 1556 1558 1561 1564 1566 1567 1568 1569 1570 1571 1572 1573 1574 1575 1576 1576 1577 1577 1578 1579 1579 1580 1580 1580 1580 1580 1581 1581 1582 1582 1581 1581 1582 1582 1581 1581 1581 1582 1582 1582 1582 1582 1582 1582 1582 1582 1582 1582 1582 1583 1583 1582 1582 1582 1582 1582 1581 1581 1580 1579 1579 1579 1578 1577 1577 1576 1576 1576 1575 1575 1575 1574 1574 1574 1574 1573 1572 1571 1570 1570 1569 1569 1568 1567
1552 1554 1557 1560 1562 1564 1566 1567 1568 1568 1569 1570 1571 1572 1574 1574 1575 1576 1576 1577 1577 1578 1578 1579 1579 1579 1579 1580 1580 1580 1580 1580 1580 1580 1580 1580 1580 1580 1580 1580 1580 1580 1580 1580 1581 1580 1580 1580 1580 1581 1581 1581 1581 1580 1580 1580 1580 1580 1579 1578 1578 1577 1577 1576 1575 1575 1574 1574 1574 1574 1574 1573 1573 1573 1573 1572 1572 1571 1570 1569 1568 1568 1567 1566 1566
1551 1553 1556 1559 1561 1562 1563 1565 1566 1567 1567 1568 1569 1571 1572 1572 1573 1574 1574 1575 1576 1576 1577 1577 1577 1578 1578 1578 1578 1578 1578 1578 1578 1578 1578 1578 1577 1578 1577 1577 1578 1578 1578 1578 1578 1578 1578 1578 1578 1579 1579 1579 1578 1578 1578 1578 1578 1578 1578 1577 1576 1576 1575 1575 1574 1573 1572 1572 1572 1572 1572 1572 1572 1572 1572 1571 1570 1570 1569 1568 1567 1566 1565 1564 1564
1552 1553 1555 1557 1558 1560 1561 1562 1563 1564 1565 1566 1567 1569 1570 1571 1572 1572 1572 1573 1574 1574 1575 1575 1575 1576 1576 1576 1576 1576 1576 1576 1576 1575 1576 1576 1576 1576 1575 1575 1576 1576 1576 1577 1577 1577 1577 1576 1576 1577 1577 1577 1577 1577 1577 1577 1577 1576 1576 1575 1575 1574 1573 1573 1573 1572 1571 1571 1571 1571 1570 1570 1570 1570 1570 1570 1569 1569 1568 1568 1567 1566 1564 1562 1562
1552 1553 1554 1555 1557 1559 1560 1560 1561 1561 1562 1563 1565 1566 1568 1570 1571 1571 1572 1571 1572 1572 1572 1573 1573 1573 1573 1573 1574 1574 1574 1574 1574 1574 1574 1575 1575 1575 1574 1574 1574 1574 1574 1575 1575 1575 1575 1575 1575 1575 1575 1575 1575 1575 1575 1575 1575 1575 1574 1574 1574 1573 1572 1572 1572 1571 1570 1570 1570 1570 1569 1569 1568 1569 1569 1570 1570 1568 1567 1566 1565 1565 1564 1561 1559
1550 1552 1553 1554 1555 1556 1557 1558 1558 1559 1560 1561 1563 1565 1566 1568 1569 1570 1570 1571 1571 1571 1571 1571 1572 1572 1572 1571 1571 1571 1571 1572 1572 1573 1573 1573 1573 1574 1573 1573 1573 1572 1573 1573 1573 1573 1573 1573 1573 1573 1574 1574 1573 1573 1573 1574 1574 1574 1573 1573 1572 1572 1572 1572 1571 1570 1570 1570 1569 1569 1568 1568 1567 1567 1568 1568 1568 1567 1566 1564 1563 1563 1562 1560 1558
1548 1550 1551 1551 1553 1554 1553 1554 1556 1557 1557 1559 1560 1561 1563 1566 1567 1567 1567 1568 1569 1570 1570 1570 1570 1570 1570 1570 1569 1568 1568 1569 1569 1570 1571 1571 1571 1571 1571 1572 1572 1571 1571 1572 1572 1571 1571 1572 1572 1571 1571 1571 1572 1572 1572 1573 1573 1573 1573 1572 1571 1571 1571 1571 1570 1570 1570 1570 1569 1569 1568 1567 1566 1566 1566 1566 1565 1565 1565 1564 1562 1563 1562 1559 1557
1546 1548 1550 1549 1550 1551 1551 1552 1554 1555 1556 1556 1557 1557 1559 1563 1565 1566 1566 1566 1567 1568 1569 1569 1570 1570 1569 1570 1568 1566 1565 1566 1567 1569 1571 1571 1571 1570 1569 1570 1571 1570 1569 1569 1569 1569 1570 1570 1570 1570 1569 1569 1571 1572 1571 1571 1571 1571 1571 1571 1570 1570 1570 1570 1569 1568 1568 1567 1568 1569 1567 1566 1566 1565 1564 1564 1563 1563 1563 1562 1561 1563 1562 1559 1556
1545 1546 1547 1546 1547 1549 1550 1551 1552 1552 1553 1554 1555 1556 1557 1559 1561 1563 1564 1564 1564 1565 1566 1567 1566 1567 1567 1567 1566 1563 1564 1566 1566 1568 1569 1570 1570 1569 1568 1568 1569 1568 1568 1567 1566 1567 1568 1569 1569 1568 1568 1569 1570 1570 1569 1569 1568 1568 1568 1568 1569 1569 1568 1567 1567 1566 1565 1564 1564 1565 1565 1564 1565 1564 1563 1562 1561 1561 1561 1560 1560 1561 1561 1558 1555
1544 1544 1544 1544 1545 1547 1548 1548 1548 1549 1550 1552 1553 1553 1554 1556 1557 1559 1561 1561 1561 1562 1563 1564 1564 1564 1563 1563 1562 1562 1563 1564 1565 1566 1567 1567 1568 1568 1566 1566 1567 1566 1565 1565 1565 1566 1566 1567 1566 1566 1567 1569 1570 1569 1567 1565 1564 1564 1564 1565 1566 1566 1566 1565 1564 1564 1563 1562 1561 1561 1561 1561 1561 1561 1561 1560 1559 1558 1559 1559 1559 1559 1558 1556 1553
1542 1542 1542 1542 1543 1544 1545 1545 1546 1546 1547 1549 1550 1550 1551 1552 1554 1555 1556 1557 1558 1559 1560 1562 1563 1562 1561 1560 1561 1561 1562 1562 1563 1565 1565 1565 1565 1565 1565 1565 1564 1564 1563 1562 1563 1564 1564 1564 1564 1564 1565 1566 1568 1567 1564 1562 1561 1561 1561 1561 1561 1563 1563 1562 1562 1561 1561 1559 1558 1557 1558 1558 1558 1557 1557 1557 1556 1556 1557 1557 1557 1556 1556 1554 1551
1540 1540 1540 1541 1541 1541 1542 1543 1543 1544 1545 1546 1547 1547 1548 1549 1550 1552 1553 1553 1554 1556 1557 1558 1559 1559 1558 1558 1559 1559 1560 1561 1562 1562 1563 1563 1563 1563 1563 1562 1562 1561 1561 1560 1560 1561 1561 1561 1561 1561 1562 1564 1566 1564 1561 1560 1558 1558 1558 1558 1558 1558 1559 1559 1559 1558 1557 1556 1555 1554 1555 1556 1555 1553 1554 1554 1553 1554 1555 1555 1554 1553 1553 1551 1549
1538 1538 1539 1539 1539 1540 1541 1541 1542 1543 1543 1544 1544 1544 1545 1546 1547 1548 1549 1550 1552 1553 1554 1555 1555 1555 1556 1557 1557 1557 1558 1559 1559 1559 1560 1560 1559 1560 1560 1560 1559 1559 1560 1560 1559 1558 1557 1558 1558 1558 1559 1561 1562 1560 1558 1557 1555 1555 1554 1555 1555 1555 1555 1555 1555 1555 1553 1552 1551 1550 1551 1552 1551 1550 1551 1550 1550 1551 1552 1552 1551 1550 1549 1549 1548
1536 1537 1538 1538 1538 1539 1539 1540 1541 1542 1542 1543 1543 1543 1543 1543 1544 1545 1547 1548 1550 1551 1551 1552 1552 1553 1554 1555 1555 1556 1557 1558 1557 1557 1557 1557 1557 1557 1557 1557 1557 1557 1557 1558 1557 1555 1555 1555 1556 1557 1558 1558 1556 1555 1554 1553 1552 1552 1551 1551 1552 1552 1552 1552 1552 1551 1550 1549 1548 1547 1547 1547 1548 1547 1547 1547 1547 1547 1547 1547 1547 1546 1546 1546 1545
1536 1537 1537 1538 1538 1538 1539 1539 1539 1540 1540 1541 1541 1541 1542 1542 1542 1543 1545 1547 1549 1549 1550 1550 1550 1550 1551 1552 1553 1554 1556 1556 1556 1555 1555 1555 1555 1555 1554 1555 1555 1555 1555 1555 1555 1554 1554 1554 1554 1557 1557 1555 1553 1552 1551 1550 1549 1549 1549 1549 1549 1549 1549 1549 1549 1548 1546 1545 1544 1543 1543 1544 1544 1544 1544 1543 1542 1543 1543 1543 1544 1543 1542 1542 1542
1536 1537 1537 1538 1538 1538 1538 1538 1538 1538 1539 1539 1539 1540 1541 1541 1542 1542 1544 1545 1547 1548 1549 1549 1549 1549 1549 1550 1551 1553 1554 1554 1554 1553 1553 1553 1553 1552 1552 1553 1553 1553 1553 1553 1553 1552 1553 1552 1553 1555 1555 1553 1551 1549 1548 1547 1546 1546 1546 1546 1546 1546 1546 1546 1545 1544 1543 1542 1541 1540 1539 1539 1540 1540 1540 1539 1539 1539 1539 1540 1541 1541 1540 1540 1540
1537 1537 1537 1537 1537 1537 1537 1537 1538 1538 1539 1539 1539 1539 1540 1541 1542 1542 1543 1544 1545 1547 1548 1549 1549 1549 1549 1549 1550 1552 1552 1552 1552 1551 1551 1552 1551 1550 1550 1550 1551 1551 1551 1552 1552 1552 1551 1551 1552 1552 1552 1550 1549 1547 1545 1544 1544 1543 1543 1542 1542 1542 1542 1541 1541 1540 1540 1539 1538 1536 1535 1534 1534 1534 1535 1536 1536 1535 1535 1537 1538 1538 1538 1537 1537
1537 1538 1537 1537 1537 1537 1537 1538 1539 1539 1539 1540 1540 1540 1540 1542 1542 1542 1544 1544 1545 1546 1547 1548 1549 1548 1548 1548 1550 1551 1551 1550 1550 1549 1549 1549 1549 1548 1548 1549 1550 1550 1549 1549 1550 1550 1550 1550 1550 1549 1549 1547 1546 1545 1543 1542 1541 1541 1540 1540 1539 1538 1538 1537 1537 1537 1536 1535 1534 1532 1531 1531 1531 1531 1531 1531 1531 1531 1531 1532 1533 1533 1533 1534 1534
1538 1538 1538 1538 1538 1539 1539 1539 1539 1539 1540 1540 1541 1541 1542 1542 1543 1543 1544 1545 1545 1546 1547 1547 1548 1547 1547 1548 1549 1550 1549 1548 1548 1548 1548 1547 1547 1547 1548 1549 1549 1549 1548 1547 1548 1548 1548 1548 1547 1547 1546 1545 1544 1543 1542 1540 1540 1539 1539 1538 1537 1536 1535 1534 1533 1533 1531 1530 1529 1528 1528 1529 1529 1530 1529 1526 1525 1526 1527 1527 1528 1528 1529 1530 1530
1540 1540 1540 1540 1540 1540 1540 1541 1541 1541 1541 1542 1542 1542 1543 1544 1544 1544 1545 1545 1546 1546 1547 1547 1547 1547 1547 1548 1548 1547 1547 1547 1547 1546 1546 1546 1546 1547 1547 1548 1548 1548 1547 1547 1547 1547 1546 1546 1546 1545 1545 1544 1543 1542 1540 1539 1539 1538 1537 1536 1536 1535 1534 1532 1531 1530 1528 1527 1526 1525 1524 1525 1526 1526 1525 1522 1522 1523 1523 1523 1523 1524 1525 1526 1527
1543 1543 1543 1543 1543 1543 1543 1543 1543 1543 1543 1543 1543 1544 1544 1545 1545 1545 1546 1546 1547 1547 1547 1548 1548 1548 1548 1548 1547 1547 1547 1547 1546 1546 1545 1545 1545 1546 1547 1547 1547 1547 1547 1547 1546 1546 1546 1545 1545 1544 1543 1543 1542 1541 1540 1539 1538 1537 1536 1535 1534 1533 1532 1531 1530 1528 1527 1526 1525 1523 1522 1522 1522 1522 1522 1521 1521 1522 1522 1521 1521 1522 1523 1524 1525
1545 1545 1545 1546 1546 1546 1546 1546 1546 1546 1545 1545 1545 1546 1546 1546 1547 1547 1547 1548 1548 1548 1548 1549 1549 1549 1549 1549 1548 1548 1548 1547 1546 1546 1545 1545 1545 1546 1546 1547 1547 1547 1546 1546 1545 1545 1544 1544 1544 1543 1543 1542 1541 1540 1539 1538 1537 1537 1536 1535 1534 1533 1532 1531 1530 1529 1527 1526 1525 1523 1522 1522 1522 1522 1522 1522 1522 1523 1523 1523 1522 1522 1523 1523 1524
1547 1547 1547 1547 1548 1548 1548 1548 1548 1548 1548 1548 1548 1548 1549 1549 1549 1549 1550 1550 1550 1550 1550 1550 1550 1550 1550 1549 1549 1548 1548 1547 1546 1546 1545 1545 1545 1546 1546 1546 1546 1546 1545 1544 1544 1543 1544 1544 1544 1543 1543 1542 1541 1540 1539 1538 1538 1537 1536 1535 1534 1534 1533 1532 1531 1530 1528 1527 1525 1524 1523 1523 1523 1523 1523 1523 1523 1523 1524 1524 1524 1524 1523 1523 1524
1548 1549 1549 1549 1550 1550 1550 1549 1550 1550 1550 1551 1550 1551 1551 1551 1551 1552 1552 1552 1552 1552 1551 1551 1551 1551 1550 1550 1549 1548 1547 1547 1546 1546 1545 1545 1545 1545 1545 1545 1545 1545 1544 1544 1544 1544 1544 1544 1543 1543 1542 1542 1541 1540 1540 1539 1539 1539 1537 1537 1536 1535 1534 1533 1532 1531 1529 1528 1526 1525 1524 1524 1524 1524 1524 1523 1523 1524 1525 1525 1525 1524 1524 1524 1524
1551 1551 1551 1551 1551 1551 1551 1551 1551 1551 1551 1551 1551 1552 1552 1553 1553 1553 1553 1553 1553 1553 1552 1552 1552 1552 1551 1550 1549 1548 1548 1547 1546 1546 1546 1545 1545 1545 1545 1544 1544 1544 1544 1544 1544 1544 1544 1544 1543 1543 1543 1542 1541 1541 1541 1541 1540 1540 1539 1539 1538 1536 1534 1534 1533 1532 1530 1529 1528 1527 1526 1525 1525 1525 1525 1525 1525 1525 1526 1526 1526 1525 1525 1525 1525
1553 1553 1553 1553 1553 1552 1552 1552 1551 1551 1551 1551 1551 1552 1552 1552 1552 1552 1552 1552 1552 1552 1552 1552 1551 1551 1551 1551 1550 1549 1548 1548 1547 1547 1547 1546 1546 1546 1545 1545 1545 1545 1545 1545 1544 1544 1544 1544 1544 1543 1543 1542 1542 1541 1541 1541 1541 1540 1540 1540 1538 1536 1535 1534 1533 1532 1531 1530 1529 1528 1527 1527 1526 1526 1526 1526 1526 1527 1527 1527 1526 1526 1526 1525 1525
1555 1555 1555 1555 1555 1554 1554 1554 1553 1552 1552 1551 1551 1551 1551 1551 1551 1551 1551 1552 1552 1552 1552 1552 1551 1551 1551 1551 1550 1550 1549 1549 1549 1548 1548 1548 1547 1547 1546 1546 1546 1546 1546 1545 1545 1545 1545 1545 1544 1543 1543 1542 1542 1541 1540 1540 1540 1540 1540 1539 1539 1537 1536 1535 1534 1533 1532 1531 1531 1530 1529 1528 1528 1528 1528 1528 1528 1528 1528 1527 1527 1526 1526 1526 1526
1556 1556 1555 1555 1555 1555 1556 1555 1555 1554 1553 1553 1552 1552 1552 1552 1552 1552 1552 1552 1552 1552 1552 1552 1552 1551 1551 1551 1551 1550 1550 1550 1549 1549 1549 1548 1548 1548 1547 1547 1547 1547 1547 1546 1546 1546 1546 1546 1545 1544 1544 1543 1542 1541 1541 1540 1540 1540 1540 1539 1539 1538 1537 1536 1535 1534 1533 1532 1532 1531 1530 1530 1530 1530 1530 1529 1529 1529 1528 1528 1527 1527 1526 1526 1525
1557 1556 1556 1555 1555 1555 1556 1555 1555 1555 1554 1553 1553 1553 1553 1553 1553 1553 1553 1553 1553 1553 1553 1552 1552 1552 1552 1551 1551 1551 1551 1551 1550 1550 1550 1549 1549 1549 1548 1548 1548 1548 1547 1547 1547 1547 1547 1547 1546 1546 1545 1545 1544 1543 1543 1542 1541 1541 1541 1540 1539 1538 1537 1536 1535 1535 1534 1533 1532 1532 1531 1531 1531 1530 1530 1530 1529 1529 1528 1528 1527 1526 1526 1525 1525
1557 1557 1557 1556 1555 1555 1555 1555 1555 1555 1555 1554 1554 1554 1554 1554 1554 1554 1554 1553 1553 1553 1553 1553 1553 1552 1552 1552 1552 1552 1552 1551 1551 1551 1550 1550 1550 1549 1549 1549 1548 1548 1548 1547 1547 1548 1548 1547 1547 1547 1546 1546 1545 1544 1544 1543 1543 1542 1542 1541 1540 1539 1538 1537 1536 1536 1535 1534 1534 1533 1533 1532 1532 1531 1530 1530 1529 1529 1528 1527 1527 1526 1526 1526 1525
1557 1557 1557 1556 1556 1556 1556 1555 1555 1555 1555 1555 1555 1555 1555 1555 1555 1554 1554 1554 1554 1554 1554 1553 1553 1553 1553 1553 1553 1553 1553 1552 1552 1552 1551 1551 1551 1550 1550 1549 1549 1548 1548 1548 1548 1548 1548 1548 1547 1547 1547 1546 1546 1546 1545 1544 1544 1543 1542 1542 1540 1539 1539 1538 1537 1537 1536 1536 1535 1534 1534 1533 1532 1532 1531 1530 1529 1528 1528 1527 1526 1526 1525 1525 1525
1556 1556 1556 1556 1556 1556 1556 1556 1556 1556 1556 1556 1556 1556 1557 1557 1556 1555 1555 1554 1554 1554 1554 1554 1554 1554 1553 1553 1553 1553 1553 1553 1553 1552 1552 1552 1551 1551 1550 1549 1549 1549 1548 1548 1548 1548 1548 1548 1548 1547 1547 1546 1546 1546 1545 1544 1544 1543 1543 1542 1541 1540 1539 1538 1538 1537 1537 1536 1536 1535 1534 1533 1533 1532 1532 1531 1530 1529 1528 1527 1526 1525 1525 1524 1523
1557 1556 1556 1556 1556 1557 1557 1557 1557 1557 1556 1556 1556 1557 1557 1557 1556 1556 1556 1556 1556 1555 1555 1554 1554 1554 1554 1554 1553 1553 1553 1553 1553 1552 1552 1552 1551 1551 1550 1550 1550 1550 1549 1548 1548 1548 1548 1548 1548 1547 1547 1547 1546 1546 1545 1544 1544 1543 1543 1542 1541 1540 1539 1539 1538 1537 1537 1536 1536 1535 1534 1533 1532 1532 1532 1531 1530 1529 1528 1528 1527 1525 1524 1523 1521
1557 1557 1557 1556 1557 1557 1557 1556 1556 1556 1556 1556 1557 1557 1557 1556 1557 1557 1557 1557 1557 1556 1555 1554 1554 1554 1554 1553 1553 1553 1553 1553 1552 1552 1552 1552 1551 1551 1551 1551 1551 1551 1550 1549 1549 1548 1548 1547 1547 1547 1547 1546 1546 1545 1545 1544 1543 1543 1542 1541 1540 1539 1538 1538 1537 1536 1536 1535 1534 1534 1533 1532 1531 1530 1530 1529 1528 1527 1527 1526 1525 1523 1522 1521 1520
1556 1557 1556 1556 1556 1556 1556 1556 1556 1555 1555 1555 1556 1556 1556 1556 1556 1556 1556 1556 1556 1556 1556 1554 1553 1553 1553 1553 1553 1553 1552 1552 1552 1552 1551 1551 1551 1551 1552 1552 1551 1551 1550 1549 1549 1548 1548 1547 1547 1546 1546 1546 1545 1545 1544 1544 1543 1542 1541 1540 1539 1538 1537 1536 1535 1534 1534 1534 1533 1532 1531 1530 1529 1528 1527 1526 1526 1525 1524 1523 1522 1521 1520 1519 1518
1554 1555 1554 1554 1554 1555 1555 1556 1555 1555 1555 1555 1555 1555 1555 1555 1555 1555 1555 1555 1555 1555 1555 1554 1553 1553 1553 1552 1552 1552 1552 1552 1552 1551 1551 1551 1551 1552 1552 1552 1551 1551 1550 1549 1549 1549 1548 1547 1546 1546 1545 1545 1544 1543 1543 1543 1542 1541 1540 1540 1539 1538 1537 1536 1535 1534 1533 1533 1532 1531 1530 1529 1527 1526 1525 1524 1523 1522 1521 1520 1519 1518 1517 1516 1515
1553 1553 1552 1552 1553 1553 1554 1554 1555 1555 1554 1555 1554 1554 1554 1554 1554 1554 1554 1554 1554 1554 1554 1553 1553 1553 1552 1551 1551 1551 1552 1552 1552 1552 1552 1552 1552 1552 1552 1552 1551 1551 1550 1550 1549 1549 1549 1548 1547 1547 1546 1545 1544 1543 1543 1543 1542 1541 1540 1539 1539 1538 1537 1536 1536 1535 1533 1533 1532 1531 1530 1529 1528 1526 1525 1523 1522 1520 1519 1517 1516 1515 1514 1513 1512
1553 1552 1551 1551 1552 1552 1553 1553 1554 1554 1554 1554 1554 1554 1554 1553 1553 1553 1553 1553 1553 1553 1553 1553 1553 1552 1551 1550 1550 1551 1551 1552 1552 1552 1552 1552 1551 1551 1551 1551 1551 1550 1550 1550 1549 1549 1549 1549 1548 1548 1547 1546 1544 1543 1543 1543 1543 1542 1541 1540 1539 1538 1537 1536 1536 1535 1534 1532 1531 1530 1529 1528 1526 1525 1523 1522 1521 1519 1517 1516 1516 1514 1513 1511 1510
1552 1552 1551 1551 1551 1551 1552 1552 1552 1552 1553 1553 1552 1552 1552 1552 1552 1552 1552 1552 1552 1552 1552 1552 1551 1550 1549 1549 1550 1550 1550 1551 1551 1552 1552 1551 1551 1550 1550 1551 1550 1550 1549 1549 1549 1549 1549 1549 1549 1548 1547 1545 1544 1543 1542 1541 1541 1540 1540 1539 1539 1538 1536 1535 1534 1534 1532 1530 1529 1528 1527 1525 1524 1523 1522 1520 1519 1518 1517 1516 1516 1515 1513 1512 1511
1551 1551 1551 1551 1551 1551 1551 1552 1551 1551 1552 1551 1551 1551 1551 1551 1551 1551 1551 1551 1551 1551 1551 1551 1550 1548 1547 1548 1549 1549 1549 1550 1550 1550 1550 1551 1550 1549 1549 1550 1550 1549 1548 1548 1549 1549 1549 1549 1548 1548 1546 1545 1544 1543 1542 1541 1540 1539 1538 1538 1537 1536 1535 1534 1532 1531 1530 1528 1527 1525 1524 1523 1522 1522 1521 1520 1519 1518 1517 1516 1515 1514 1513 1512 1511
1550 1550 1550 1551 1551 1551 1551 1551 1551 1551 1551 1550 1550 1550 1550 1550 1550 1551 1550 1550 1551 1550 1550 1550 1550 1548 1546 1547 1547 1547 1548 1549 1549 1549 1549 1549 1549 1549 1549 1549 1549 1548 1548 1548 1548 1548 1548 1548 1548 1547 1545 1544 1543 1542 1541 1541 1540 1539 1538 1537 1536 1535 1533 1532 1531 1529 1527 1525 1524 1523 1522 1521 1520 1520 1519 1519 1518 1517 1515 1514 1514 1513 1512 1511 1510
1550 1550 1550 1550 1550 1550 1550 1550 1550 1550 1550 1549 1549 1549 1550 1550 1550 1550 1550 1550 1550 1549 1549 1549 1549 1547 1546 1546 1546 1546 1547 1547 1547 1547 1547 1548 1548 1548 1548 1548 1548 1548 1547 1547 1547 1547 1546 1546 1546 1545 1544 1544 1542 1541 1540 1539 1538 1537 1536 1535 1534 1533 1531 1530 1528 1526 1524 1523 1522 1521 1520 1519 1518 1517 1517 1516 1515 1514 1514 1513 1512 1512 1511 1510 1509
1550 1550 1550 1550 1550 1550 1550 1550 1549 1549 1549 1549 1549 1549 1549 1549 1549 1549 1549 1549 1549 1548 1548 1548 1547 1547 1546 1546 1546 1546 1546 1546 1546 1546 1546 1546 1547 1547 1547 1547 1546 1546 1546 1546 1545 1545 1545 1545 1544 1543 1543 1542 1541 1540 1539 1538 1537 1536 1534 1532 1531 1530 1529 1527 1526 1524 1522 1521 1520 1519 1518 1518 1517 1516 1515 1514 1513 1512 1512 1512 1511 1510 1509 1508 1507
1550 1549 1550 1550 1550 1550 1549 1549 1549 1549 1549 1549 1549 1549 1549 1549 1548 1548 1548 1548 1547 1547 1548 1547 1546 1546 1545 1545 1545 1545 1544 1544 1544 1545 1545 1545 1545 1546 1546 1546 1545 1545 1545 1544 1544 1543 1543 1543 1542 1542 1541 1540 1539 1538 1537 1536 1535 1534 1533 1530 1529 1527 1525 1524 1523 1522 1521 1520 1518 1517 1517 1516 1515 1514 1513 1512 1511 1511 1510 1510 1509 1508 1507 1507 1506
1549 1549 1549 1549 1549 1549 1549 1549 1549 1549 1549 1549 1549 1548 1548 1548 1548 1548 1547 1547 1546 1546 1546 1546 1545 1545 1544 1544 1544 1544 1543 1543 1543 1543 1543 1543 1544 1544 1544 1544 1544 1544 1544 1543 1543 1543 1542 1541 1540 1540 1539 1538 1537 1536 1535 1534 1533 1532 1530 1527 1525 1523 1522 1522 1522 1521 1520 1518 1517 1516 1515 1514 1513 1512 1511 1511 1510 1509 1509 1508 1508 1507 1506 1505 1504
1548 1548 1548 1548 1548 1548 1549 1548 1548 1548 1548 1548 1548 1548 1548 1548 1547 1547 1547 1546 1546 1546 1545 1545 1545 1544 1543 1543 1543 1543 1542 1542 1542 1542 1542 1542 1542 1542 1542 1542 1542 1542 1542 1542 1542 1541 1540 1539 1539 1538 1537 1536 1535 1534 1533 1532 1531 1530 1527 1524 1523 1522 1521 1521 1520 1519 1518 1517 1515 1514 1513 1512 1511 1511 1510 1509 1509 1508 1508 1508 1507 1506 1505 1504 1503
1548 1548 1548 1548 1548 1548 1548 1548 1548 1548 1548 1548 1548 1547 1547 1547 1547 1547 1546 1546 1546 1545 1545 1544 1544 1543 1543 1543 1542 1542 1542 1541 1541 1541 1541 1541 1541 1541 1541 1540 1541 1541 1540 1541 1541 1540 1539 1538 1537 1536 1535 1534 1533 1532 1531 1530 1529 1527 1524 1522 1522 1521 1520 1519 1519 1518 1516 1515 1514 1512 1511 1510 1509 1509 1508 1508 1508 1508 1507 1507 1506 1505 1504 1503 1502
1547 1547 1547 1547 1547 1547 1547 1547 1547 1547 1547 1547 1547 1547 1547 1547 1546 1546 1546 1546 1545 1545 1544 1544 1544 1543 1543 1542 1542 1542 1541 1541 1541 1541 1540 1540 1540 1540 1540 1540 1540 1539 1539 1539 1539 1538 1538 1537 1535 1534 1534 1533 1532 1531 1530 1528 1526 1524 1522 1521 1521 1520 1519 1518 1517 1516 1514 1513 1512 1510 1509 1509 1508 1508 1508 1508 1508 1507 1507 1506 1505 1504 1503 1503 1502
1546 1546 1546 1546 1546 1546 1546 1546 1546 1546 1546 1546 1546 1546 1546 1546 1546 1545 1545 1545 1545 1544 1544 1543 1543 1543 1543 1542 1542 1541 1541 1541 1540 1540 1540 1540 1539 1539 1539 1539 1539 1538 1537 1537 1536 1536 1536 1535 1534 1533 1532 1531 1530 1529 1528 1526 1523 1522 1521 1521 1520 1519 1518 1517 1516 1514 1513 1512 1510 1509 1508 1508 1508 1508 1508 1507 1507 1506 1506 1505 1504 1504 1503 1502 1501